Location: Dvur Kralove nad Labem
(50.4330°N, 15.8170°E)
Time: 22:13:20
(UTC+02:00)

ISS - Pass Details

Date: 26 May 2022
Orbit: 414 x 420 km, 51.6° (Epoch: 30 June)

Event Time Altitude Azimuth Distance (km) Brightness Sun altitude
Rises 22:22:51 0° 287° (WNW) 2,370 1.0 -11.0°
Reaches altitude 10° 22:25:01 10° 280° (W) 1,502 -0.3 -11.2°
Maximum altitude 22:28:13 42° 208° (SSW) 610 -3.2 -11.5°
Enters shadow 22:30:11 20° 146° (SE) 1,038 -2.4 -11.6°
